Weather History for LTCE - September, 2013

Change the Weather History Date:

Thursday, September 19, 2013

  Actual Average Record
Temperature  
Mean Temperature 58 °F -  
Max Temperature 66 °F 63 °F 81 °F (2012)
Min Temperature 49 °F 39 °F 32 °F (2003)
Degree Days  
Heating Degree Days 8    
Growing Degree Days 8 (Base 50)    
Moisture  
Dew Point 48 °F    
Average Humidity 70    
Maximum Humidity 94    
Minimum Humidity 49    
Precipitation  
Precipitation 0.04 in 0.05 in - ()
Sea Level Pressure  
Sea Level Pressure 30.01 in    
Wind  
Wind Speed 4 mph ()    
Max Wind Speed 13 mph    
Max Gust Speed -    
Visibility 6.6 miles    
Events Rain    
Averages and records for this station are not official NWS values.
T = Trace of Precipitation, MM = Missing Value Source: Averaged Metar Reports

Daily Weather History Graph

Daily Weather History Graph

Search for Another Location

Airport or City:

Trip Planner

Search our weather history database for the weather conditions in past years. The results will help you decide how hot, cold, wet, or windy it might be!

Date:

Astronomy

Sep. 19, 2013 Rise Set
Actual Time 5:59 AM EEST 6:17 PM EEST
Civil Twilight 5:32 AM EEST 6:44 PM EEST
Nautical Twilight 5:01 AM EEST 7:16 PM EEST
Astronomical Twilight 4:28 AM EEST 7:48 PM EEST
Moon 6:03 PM EEST (9/19) 5:45 AM EEST (9/19)
Length of Visible Light 13h 11m
Length of Day
12h 17m
Full, 100% of the Moon is Illuminated
Sep 19
Full
Sep 19
Full
Sep 27
Last Quarter
Oct 5
New
Oct 12
First Quarter

Hourly Weather History & Observations

Time (EEST) Temp. Dew Point Humidity Pressure Visibility Wind Dir Wind Speed Gust Speed Precip Events Conditions
12:20 AM 55.4 °F 44.6 °F 67% 29.98 in 6.2 mi SW 6.9 mph - N/A   Mostly Cloudy
12:50 AM 55.4 °F 46.4 °F 72% 29.98 in 6.2 mi WSW 5.8 mph - N/A   Mostly Cloudy
1:20 AM 53.6 °F 44.6 °F 72% 29.98 in 6.2 mi Variable 2.3 mph - N/A   Mostly Cloudy
1:50 AM 51.8 °F 46.4 °F 82% 29.98 in 6.2 mi SE 2.3 mph - N/A   Mostly Cloudy
2:20 AM 51.8 °F 48.2 °F 88% 29.98 in 6.2 mi ESE 3.5 mph - N/A   Mostly Cloudy
2:50 AM 53.6 °F 48.2 °F 82% 29.98 in 6.2 mi ESE 4.6 mph - N/A   Mostly Cloudy
3:00 AM 53 °F 48 °F 78%  in 12 mi ESE 4.6 mph - -   Partly Cloudy
3:20 AM 51.8 °F 48.2 °F 88% 29.98 in 6.2 mi Variable 2.3 mph - N/A   Mostly Cloudy
3:50 AM 51.8 °F 48.2 °F 88% 29.98 in 6.2 mi ESE 3.5 mph - N/A   Mostly Cloudy
4:20 AM 51.8 °F 46.4 °F 82% 29.98 in 6.2 mi Calm Calm - N/A   Mostly Cloudy
4:50 AM 50.0 °F 46.4 °F 87% 29.98 in 6.2 mi Variable 2.3 mph - N/A   Mostly Cloudy
5:20 AM 50.0 °F 48.2 °F 94% 29.98 in 6.2 mi Variable 1.2 mph - N/A   Mostly Cloudy
5:50 AM 50.0 °F 48.2 °F 94% 29.98 in 6.2 mi Variable 1.2 mph - N/A   Mostly Cloudy
6:20 AM 50.0 °F 48.2 °F 94% 29.98 in 6.2 mi Variable 2.3 mph - N/A   Mostly Cloudy
6:50 AM 50.0 °F 48.2 °F 94% 30.01 in 6.2 mi Calm Calm - N/A   Mostly Cloudy
7:20 AM 53.6 °F 50.0 °F 88% 30.01 in 6.2 mi Variable 2.3 mph - N/A   Mostly Cloudy
7:50 AM 57.2 °F 48.2 °F 72% 30.01 in 6.2 mi Variable 2.3 mph - N/A   Mostly Cloudy
8:20 AM 57.2 °F 48.2 °F 72% 30.01 in 6.2 mi Variable 2.3 mph - N/A   Mostly Cloudy
8:50 AM 57.2 °F 48.2 °F 72% 30.01 in 6.2 mi East 4.6 mph - N/A   Mostly Cloudy
9:00 AM 58 °F 48 °F 59%  in 12 mi East 4.6 mph - -   Partly Cloudy
9:20 AM 59.0 °F 46.4 °F 63% 30.01 in 6.2 mi North 3.5 mph - N/A   Mostly Cloudy
9:50 AM 60.8 °F 48.2 °F 63% 30.01 in 6.2 mi NNW 5.8 mph - N/A   Mostly Cloudy
10:20 AM 62.6 °F 48.2 °F 59% 30.01 in 6.2 mi North 4.6 mph - N/A   Mostly Cloudy
10:50 AM 62.6 °F 48.2 °F 59% 30.01 in 6.2 mi Variable 3.5 mph - N/A Rain Light Rain Showers
10:56 AM 62.6 °F 48.2 °F 59% 30.01 in 6.2 mi WNW 3.5 mph - N/A Rain Light Rain Showers
11:20 AM 60.8 °F 48.2 °F 63% 30.01 in 6.2 mi North 8.1 mph - N/A   Mostly Cloudy
11:24 AM 60.8 °F 50.0 °F 68% 30.01 in 6.2 mi North 6.9 mph - N/A Rain Light Rain Showers
11:50 AM 59.0 °F 51.8 °F 77% 30.01 in 6.2 mi North 5.8 mph - N/A Rain Light Rain Showers
12:00 PM 60.8 °F 51.8 °F 72% 30.01 in 6.2 mi North 5.8 mph - N/A   Mostly Cloudy
12:20 PM 60.8 °F 50.0 °F 68% 30.01 in 6.2 mi North 3.5 mph - N/A   Mostly Cloudy
12:45 PM 60.8 °F 50.0 °F 68% 30.01 in 6.2 mi Variable 2.3 mph - N/A Rain Light Rain Showers
12:50 PM 60.8 °F 50.0 °F 68% 30.01 in 6.2 mi Variable 2.3 mph - N/A Rain Light Rain Showers
1:20 PM 59.0 °F 51.8 °F 77% 30.01 in 6.2 mi ESE 4.6 mph - N/A Rain Light Rain Showers
1:41 PM 60.8 °F 51.8 °F 72% 30.01 in 6.2 mi East 4.6 mph - N/A   Mostly Cloudy
1:50 PM 62.6 °F 51.8 °F 68% 30.01 in 6.2 mi East 6.9 mph - N/A   Mostly Cloudy
2:20 PM 62.6 °F 51.8 °F 68% 29.98 in 6.2 mi NNE 11.5 mph - N/A   Mostly Cloudy
2:50 PM 62.6 °F 46.4 °F 55% 30.01 in 6.2 mi Variable 5.8 mph - N/A   Mostly Cloudy
3:00 PM 64 °F 51 °F 52%  in 12 mi SE 5.8 mph - -   Partly Cloudy
3:20 PM 66.2 °F 46.4 °F 49% 29.98 in 6.2 mi SW 10.4 mph - N/A   Mostly Cloudy
3:50 PM 64.4 °F 44.6 °F 49% 29.98 in 6.2 mi SSW 12.7 mph - N/A   Mostly Cloudy
4:20 PM 64.4 °F 46.4 °F 52% 30.01 in 6.2 mi SSW 10.4 mph - N/A   Mostly Cloudy
4:50 PM 62.6 °F 44.6 °F 52% 30.01 in 6.2 mi SSW 12.7 mph - N/A   Mostly Cloudy
5:20 PM 62.6 °F 46.4 °F 55% 30.01 in 6.2 mi SW 9.2 mph - N/A   Mostly Cloudy
5:50 PM 62.6 °F 46.4 °F 55% 30.01 in 6.2 mi SW 10.4 mph - N/A   Mostly Cloudy
6:20 PM 60.8 °F 46.4 °F 59% 30.01 in 6.2 mi SSW 6.9 mph - N/A   Mostly Cloudy
6:50 PM 60.8 °F 46.4 °F 59% 30.01 in 6.2 mi WSW 8.1 mph - N/A   Mostly Cloudy
7:20 PM 60.8 °F 46.4 °F 59% 30.04 in 6.2 mi SSW 5.8 mph - N/A   Mostly Cloudy
7:50 PM 59.0 °F 46.4 °F 63% 30.04 in 6.2 mi SSW 6.9 mph - N/A   Mostly Cloudy
8:20 PM 59.0 °F 46.4 °F 63% 30.04 in 6.2 mi South 5.8 mph - N/A   Mostly Cloudy
8:50 PM 59.0 °F 46.4 °F 63% 30.04 in 6.2 mi SW 3.5 mph - N/A   Mostly Cloudy
9:00 PM 59 °F 46 °F 52%  in 12 mi SW 3.5 mph - -   Partly Cloudy
9:20 PM 57.2 °F 46.4 °F 67% 30.04 in 6.2 mi Variable 1.2 mph - N/A   Mostly Cloudy
9:50 PM 57.2 °F 46.4 °F 67% 30.04 in 6.2 mi West 6.9 mph - N/A   Mostly Cloudy
10:20 PM 57.2 °F 46.4 °F 67% 30.04 in 6.2 mi WSW 6.9 mph - N/A   Mostly Cloudy
10:50 PM 57.2 °F 46.4 °F 67% 30.04 in 6.2 mi WSW 6.9 mph - N/A   Mostly Cloudy
11:20 PM 51.8 °F 46.4 °F 82% 30.04 in 6.2 mi Variable 2.3 mph - N/A   Mostly Cloudy
11:50 PM 50.0 °F 46.4 °F 87% 30.04 in 6.2 mi Variable 2.3 mph - N/A   Mostly Cloudy